Regional Weather Roundup
Issued by NWS Little Rock, AR

Home | Current Version | Previous Version | Graphics & Text | Print | Product List | Glossary On
Versions: 1 2 3 4 5 6 7 8 9 10 11 12 13 14 15 16 17 18 19 20 21 22 23 24 25 26 27 28 29 30 31 32 33 34 35 36 37 38 39 40 41 42 43 44 45 46 47 48 49 50
000
ASUS44 KLZK 210405
RWRLZK

WEATHER ROUNDUP FOR ARKANSAS
NATIONAL WEATHER SERVICE LITTLE ROCK AR
1100 PM CDT MON APR 20 2015

NOTE: "FAIR" INDICATES FEW OR NO CLOUDS BELOW 12,000 FEET WITH NO
SIGNIFICANT WEATHER AND/OR OBSTRUCTIONS TO VISIBILITY.

ARZ001-003-010-029-210500-
NORTHWEST ARKANSAS

CITY           SKY/WX    TMP DP  RH WIND       PRES   REMARKS
FAYETTEVILLE   CLEAR     42  39  89 S6        29.98S
FORT SMITH     CLEAR     53  39  59 CALM      29.99R
HARRISON       CLEAR     48  31  51 SW3       29.97R
BENTONVILLE    CLEAR     46  34  61 SW3       29.97S
ROGERS         CLEAR     48  34  58 S6        29.97S
SILOAM SPGS    CLEAR     46  30  53 S5        29.98F
HIGHFILL       CLEAR     44  34  67 SW5       29.96S
$$

ARZ004-005-016-210500-
NORTH CENTRAL ARKANSAS

CITY           SKY/WX    TMP DP  RH WIND       PRES   REMARKS
BATESVILLE     CLEAR     48  34  57 CALM      29.97F
FLIPPIN        CLEAR     46 N/A N/A W5        29.95S
MTN HOME       CLEAR     47  33  58 SW3       29.95S
$$

ARZ040-041-210500-
WEST CENTRAL ARKANSAS

CITY           SKY/WX    TMP DP  RH WIND       PRES   REMARKS
MENA           CLEAR     45  41  87 CALM      30.01S
MOUNT IDA      CLEAR     47  38  71 CALM      29.98R
$$

ARZ009-017-025-026-028-210500-
NORTHEAST ARKANSAS

CITY           SKY/WX    TMP DP  RH WIND       PRES   REMARKS
CORNING          N/A     52  39  62 W8        29.95R
JONESBORO      CLEAR     52  36  54 NW7       29.95R
NEWPORT        CLEAR     53  37  54 NW10      29.98R
WALNUT RIDGE   CLEAR     54  34  47 W7        29.95S
BLYTHEVILLE    CLEAR     54  41  61 NW12      29.93R
$$

ARZ022-023-033-042-044-210500-
CENTRAL ARKANSAS

CITY           SKY/WX    TMP DP  RH WIND       PRES   REMARKS
LITTLE ROCK    CLEAR     58  34  40 NW8       29.99R
N LITTLE ROCK  CLEAR     54  38  54 W3        29.99R
JACKSONVILLE   CLEAR     52  39  60 W1        29.98R
SEARCY         CLEAR     54  34  46 NW5       29.99S
HOT SPRINGS    CLEAR     52  40  63 CALM      30.00R
RUSSELLVILLE   CLEAR     46  42  86 CALM      29.99R
CLINTON        FAIR      45  41  87 CALM      30.00F
$$

ARZ036-210500-
EAST ARKANSAS

CITY           SKY/WX    TMP DP  RH WIND       PRES   REMARKS
WEST MEMPHIS   CLEAR     56  42  59 VRB3      29.94S
$$

ARZ050-053-066-070-073-210500-
SOUTHWEST ARKANSAS

CITY           SKY/WX    TMP DP  RH WIND       PRES   REMARKS
ARKADELPHIA    FAIR      56  42  59 NW5       30.01R
CAMDEN         CLEAR     48  45  87 CALM      30.00R
TEXARKANA      CLEAR     52  44  74 N3        30.00R
EL DORADO      CLEAR     52  46  80 CALM      30.00R
DE QUEEN       CLEAR     49  45  86 CALM      30.00R
$$

ARZ056-057-069-210500-
SOUTHEAST ARKANSAS

CITY           SKY/WX    TMP DP  RH WIND       PRES   REMARKS
PINE BLUFF     CLEAR     56  39  53 W5        29.99R
STUTTGART      CLEAR     55  39  54 W10       29.98R
MONTICELLO     CLEAR     51  45  79 W5        29.98R

$$





USA.gov is the U.S. government's official web portal to all federal, state and local government web resources and services.